Wind_Speed
13 13 13 14 16 17 19 20 21 20 19 18 17 16 15 13 11 9 7 7 6 4 3 3 3 4 4 5 5 5 5 5 5 5 6 5 5 5 5 5 5 6 6 6 5 5 4 4 4
12 12 13 14 16 16 19 20 20 19 19 18 18 17 16 14 11 9 7 6 6 4 2 2 3 2 3 3 3 4 4 4 5 5 5 5 5 5 5 5 5 6 6 5 5 5 4 4 4
11 12 13 15 15 16 19 20 20 20 19 19 18 17 16 14 12 10 7 6 6 4 2 1 2 2 1 2 2 3 2 3 3 4 4 4 4 4 5 5 5 5 5 5 5 4 4 3 3
10 10 11 13 14 16 18 19 20 20 19 19 18 17 16 15 13 11 8 6 5 4 3 1 1 1 0 1 1 1 1 2 2 2 3 3 3 3 4 4 4 5 5 4 4 4 3 2 2
8 8 9 10 13 14 16 18 19 20 19 18 18 17 16 15 13 11 10 7 5 4 3 1 0 1 2 2 2 1 1 1 1 1 2 2 3 3 3 3 3 4 4 4 4 4 3 2 2
7 7 7 8 11 13 14 16 18 18 18 18 18 17 16 15 13 11 10 8 7 5 3 2 1 1 2 3 3 2 2 2 1 1 1 1 2 2 2 3 3 4 4 4 4 3 3 2 2
6 5 6 7 9 11 13 14 16 17 17 17 17 17 16 15 13 12 11 10 9 7 5 3 2 2 3 3 4 3 3 3 3 2 1 0 1 1 2 2 2 3 4 4 4 3 3 2 2
3 3 4 6 8 10 11 13 14 15 16 17 17 18 17 16 14 13 12 11 9 8 6 5 3 2 3 4 5 5 4 4 4 3 2 1 1 1 1 1 1 2 3 3 4 3 3 2 2
2 2 4 5 6 8 10 11 13 14 15 16 17 18 18 17 15 14 13 12 9 8 6 5 4 3 3 4 5 6 5 5 5 4 3 2 2 2 1 1 1 2 2 3 3 3 3 2 2
1 2 4 5 6 8 9 11 12 13 14 16 17 18 18 17 16 15 14 12 10 9 7 6 4 4 3 4 5 6 6 6 6 6 5 4 3 2 1 1 1 1 1 2 2 2 2 2 2
3 4 5 6 6 8 9 10 11 12 13 14 16 17 19 18 17 16 15 14 12 10 8 6 5 4 3 4 5 6 6 6 7 7 6 5 4 3 2 2 1 1 0 1 1 2 2 2 1
4 5 6 7 7 8 9 10 10 11 12 13 15 16 18 19 18 16 16 15 13 11 9 7 6 5 4 4 5 6 7 7 7 7 6 6 5 4 3 2 1 1 1 0 0 1 1 1 1
5 5 6 6 6 7 8 10 11 11 12 13 14 16 17 18 17 16 15 14 13 12 9 7 6 6 5 5 5 6 8 8 8 8 7 6 6 5 4 3 2 2 2 1 1 0 1 1 1
4 4 5 5 6 6 7 9 10 10 11 12 13 16 17 18 17 15 15 14 13 12 10 9 7 6 5 5 5 6 7 9 9 8 7 7 6 5 5 4 4 3 2 2 1 1 0 1 0
4 4 4 5 5 6 6 7 8 9 10 11 13 15 16 17 17 16 15 14 13 12 11 9 7 5 5 6 6 7 7 9 9 9 8 7 7 6 6 5 5 4 3 2 2 2 1 0 0
5 5 6 6 6 6 7 7 8 8 9 11 13 14 15 17 16 16 15 15 14 12 11 8 6 5 5 6 6 7 8 9 10 10 9 8 8 7 7 6 6 6 4 3 2 2 2 1 1
7 7 8 8 8 8 9 8 8 8 10 11 13 14 15 16 16 16 16 15 14 12 11 8 6 6 6 6 6 7 8 9 10 10 10 9 9 8 7 7 7 7 5 5 3 2 2 2 1
9 9 9 10 11 10 9 8 8 9 11 12 13 14 15 15 15 15 15 14 13 12 10 8 5 6 6 6 6 7 7 8 9 10 10 10 9 8 8 8 8 7 7 6 4 3 3 3 2
11 11 11 12 13 11 10 9 9 10 12 13 13 14 15 15 15 15 14 14 13 12 10 6 3 2 3 4 5 6 7 7 9 10 10 10 10 9 9 9 9 8 8 7 6 5 5 5 4
13 13 13 14 15 13 12 11 10 11 12 12 13 14 15 15 15 14 14 13 13 11 9 5 2 3 3 3 4 5 6 7 8 9 10 10 9 9 10 11 10 9 8 8 7 6 6 6 5
14 15 15 16 16 15 15 12 11 11 12 12 13 14 14 15 15 14 13 13 12 10 7 4 2 3 4 4 4 5 6 7 8 9 10 11 11 10 10 10 11 11 10 9 8 7 7 7 7
16 17 17 17 17 16 16 14 12 12 12 12 13 14 14 14 14 13 12 11 10 8 6 3 1 2 4 5 5 5 6 6 8 8 9 10 11 11 11 11 11 11 11 10 10 9 9 8 9
17 18 18 17 17 17 17 16 13 13 13 11 13 13 14 14 14 13 12 11 9 7 5 2 0 1 3 5 5 6 6 7 7 8 9 11 11 11 11 11 11 11 11 11 11 11 10 10 10
19 19 18 18 18 18 17 16 14 13 11 11 11 12 13 13 13 12 11 10 7 6 4 2 1 1 2 3 4 5 6 7 8 9 10 10 11 11 11 11 11 11 12 12 12 13 12 12 12
20 19 19 19 18 18 17 16 14 12 11 11 11 11 13 12 12 11 10 10 7 4 3 2 1 1 2 3 3 4 6 7 8 10 10 10 11 11 12 12 12 12 13 13 13 14 14 13 14
21 20 20 19 19 17 17 16 13 12 11 11 11 11 11 11 10 10 9 9 7 5 3 2 1 0 1 2 3 3 5 6 7 9 10 11 12 12 12 13 13 13 14 14 15 15 15 15 16
22 21 20 20 19 17 16 14 13 12 10 10 10 11 11 10 10 9 8 7 6 5 3 2 1 1 1 1 2 3 3 5 6 8 9 10 11 12 13 13 14 14 14 15 15 16 16 16 17
23 22 21 20 19 17 16 14 11 11 11 10 10 10 10 10 10 9 7 7 6 5 4 3 2 3 3 3 4 4 5 5 6 8 9 10 11 12 13 14 14 15 15 15 17 17 17 18 18
24 23 22 21 20 18 16 13 11 11 11 10 10 10 10 10 9 9 8 7 6 5 4 4 4 4 5 5 5 5 6 6 7 8 9 10 11 12 12 14 14 15 15 16 17 18 19 19 20
25 23 22 20 18 17 16 13 12 12 12 11 10 10 10 9 9 9 9 7 6 5 5 5 5 6 6 6 6 6 6 7 7 7 8 9 10 12 13 14 15 16 16 17 17 19 20 20 20
Wind_Direction
81 77 75 71 68 68 68 64 59 56 53 51 49 48 46 44 43 46 48 51 49 48 65 97 101 98 94 97 102 102 95 88 80 73 65 55 50 44 40 39 36 31 29 29 28 29 32 36 41
83 79 76 72 69 69 66 64 57 52 49 47 45 42 39 38 38 40 45 48 46 39 50 90 100 97 86 88 98 103 98 86 80 73 63 55 51 46 42 38 32 28 22 23 24 27 29 33 40
87 81 74 71 67 68 65 61 58 50 45 42 40 37 33 32 32 34 39 44 43 33 29 75 108 118 94 88 102 105 103 95 80 71 61 52 49 46 41 35 31 28 23 24 22 24 27 32 46
87 84 77 70 65 64 62 57 55 49 42 37 35 31 29 26 25 26 27 31 30 26 24 44 107 164 162 154 139 124 111 103 89 75 60 50 48 46 40 34 29 29 26 25 21 21 27 39 52
90 83 77 70 64 61 59 56 51 45 38 32 30 27 25 21 18 20 22 17 12 12 15 22 333 245 234 221 208 199 172 167 151 115 75 54 46 41 38 30 26 23 20 17 16 18 32 46 50
94 84 76 69 65 57 53 52 48 41 34 27 26 23 20 17 12 14 15 12 5 3 8 3 329 260 239 237 229 226 208 204 198 180 131 66 42 27 24 24 18 15 13 11 10 24 35 49 50
96 81 75 63 55 50 48 49 45 38 30 23 21 18 14 11 9 9 9 5 2 359 355 351 330 278 248 239 230 222 222 228 223 209 205 189 28 18 18 7 8 12 13 12 12 19 22 33 42
102 79 60 51 44 39 41 44 43 37 28 20 15 13 10 9 5 2 360 358 355 352 351 350 332 295 261 243 230 221 223 225 225 220 227 241 258 294 345 348 9 21 18 18 19 19 21 28 39
85 61 34 24 33 34 33 35 38 34 26 19 13 9 7 4 0 357 353 353 354 348 345 347 337 310 277 245 230 226 223 219 218 222 231 242 247 252 311 312 337 28 29 28 26 20 24 32 37
7 354 355 359 8 21 23 24 27 26 21 16 11 7 2 359 356 353 352 350 346 341 337 330 325 302 273 238 231 228 224 220 220 224 231 232 234 233 264 286 296 48 43 29 24 16 15 21 24
300 320 330 338 351 8 15 15 18 20 16 13 9 5 2 356 351 349 346 345 342 337 333 322 314 300 273 250 235 233 226 222 222 223 230 230 229 231 244 277 259 177 95 27 14 12 12 14 18
291 311 325 333 342 353 3 8 10 12 12 13 8 2 357 353 349 347 344 342 340 333 329 319 304 293 277 258 241 232 225 224 223 220 225 226 227 227 229 251 235 206 179 170 347 348 12 22 0
293 303 315 321 332 341 352 2 4 7 7 8 5 0 356 352 348 346 345 342 338 332 326 324 298 280 263 251 246 233 224 220 221 216 218 223 227 226 223 225 231 227 201 189 216 318 14 11 355
289 298 305 303 314 330 346 357 4 2 0 1 359 358 356 353 349 345 345 344 337 331 322 319 294 270 256 245 242 232 222 220 217 212 216 218 222 227 224 219 223 224 208 195 195 200 358 39 15
267 271 280 292 302 319 335 352 359 354 355 357 356 358 358 355 353 348 345 342 335 328 322 314 296 269 254 245 235 226 219 215 213 211 214 217 221 225 228 224 220 216 208 195 194 189 188 134 165
255 260 269 283 292 307 318 338 343 346 347 350 352 356 357 356 353 349 343 338 332 328 326 311 291 267 254 250 236 222 214 213 214 211 210 215 221 225 227 224 218 217 215 205 199 194 205 211 180
254 260 270 280 290 299 311 320 324 332 336 341 347 350 350 350 351 346 342 336 333 331 328 317 286 274 262 250 241 218 214 219 215 213 215 219 218 220 225 219 211 212 213 210 210 209 215 226 220
254 262 269 274 284 291 299 306 312 319 324 332 341 345 345 345 347 344 341 338 333 332 329 323 308 268 257 250 244 218 213 216 212 214 218 219 220 220 219 216 210 209 214 216 220 228 235 238 231
256 264 270 272 279 286 292 300 308 314 320 328 337 342 342 341 343 343 339 337 335 337 336 334 330 261 239 237 236 210 208 206 209 215 215 218 225 227 221 216 212 213 219 224 228 232 241 236 234
257 262 266 268 275 283 290 298 304 308 317 324 332 335 334 337 341 342 341 341 340 336 329 318 270 239 218 221 224 200 203 208 214 220 220 218 223 227 224 220 219 221 226 231 232 235 241 239 243
256 260 262 264 272 281 290 295 299 304 314 319 324 326 327 331 336 338 336 334 336 334 326 306 246 213 206 207 208 202 202 206 211 218 220 216 218 221 227 227 223 224 229 231 233 238 244 247 247
254 259 262 265 269 277 287 293 299 304 311 313 317 321 324 326 331 333 332 329 329 331 333 319 263 199 201 203 216 216 207 209 214 217 217 217 220 224 229 231 229 228 230 234 237 243 249 251 250
252 258 262 266 268 271 280 289 300 307 309 309 313 318 323 324 330 331 332 329 329 330 337 2 297 213 211 209 218 220 213 215 220 222 222 221 222 225 229 233 232 230 232 235 239 246 251 254 254
250 257 261 265 268 269 276 282 293 300 302 306 311 316 322 322 328 331 334 336 336 337 357 19 43 160 186 195 207 216 220 223 228 229 229 229 229 228 230 234 235 234 237 240 243 248 252 254 256
250 256 260 263 266 268 272 276 286 293 295 300 309 315 321 321 324 326 326 330 332 342 359 17 58 101 167 197 211 225 227 233 239 234 232 234 233 232 233 238 239 239 240 244 248 251 254 256 257
250 255 259 262 264 265 267 272 282 291 291 296 306 311 318 323 328 333 331 333 334 334 342 359 24 73 193 204 210 231 241 249 249 242 237 237 240 241 238 240 242 244 246 249 251 253 258 259 259
246 250 256 260 263 263 264 271 276 284 288 295 302 304 312 321 324 330 329 333 331 328 328 344 346 330 281 234 232 254 261 262 259 252 243 240 243 243 241 243 246 249 251 252 251 255 259 259 261
242 246 251 257 261 262 264 269 274 277 286 292 301 307 309 320 322 326 324 326 322 315 314 309 303 297 291 276 272 264 265 275 271 262 251 248 250 248 246 248 250 252 255 255 256 259 260 264 265
243 247 251 255 260 263 264 268 272 277 282 288 298 306 309 318 329 336 330 325 317 308 310 309 297 290 283 278 277 275 272 275 275 271 259 253 250 249 249 250 253 256 257 257 260 263 266 266 265
241 244 247 251 256 261 264 264 267 274 280 287 294 302 308 312 319 330 329 324 318 312 309 306 299 288 283 285 282 278 278 276 280 278 267 260 256 253 254 256 259 260 259 259 264 267 268 268 269
Height
5892 5892 5892 5892 5892 5890 5888 5888 5887 5887 5887 5887 5886 5886 5885 5886 5886 5888 5886 5884 5884 5884 5885 5885 5885 5886 5886 5887 5888 5889 5890 5891 5892 5892 5893 5893 5894 5894 5895 5895 5895 5895 5895 5895 5895 5895 5895 5895 5895
5894 5894 5895 5895 5893 5892 5891 5890 5890 5890 5889 5888 5887 5887 5887 5887 5886 5886 5885 5884 5884 5885 5885 5885 5885 5886 5886 5887 5888 5889 5890 5891 5892 5892 5893 5894 5894 5894 5895 5895 5895 5895 5895 5895 5895 5895 5895 5895 5895
5896 5897 5898 5897 5896 5895 5894 5892 5892 5892 5891 5890 5889 5889 5889 5888 5887 5887 5886 5885 5885 5885 5885 5885 5885 5886 5886 5887 5888 5889 5890 5891 5892 5892 5893 5894 5894 5894 5895 5895 5895 5895 5895 5895 5895 5895 5895 5895 5895
5899 5899 5899 5899 5897 5897 5896 5895 5894 5894 5893 5892 5892 5891 5890 5889 5888 5887 5886 5886 5885 5885 5885 5885 5885 5885 5886 5887 5888 5888 5889 5890 5891 5892 5893 5893 5894 5894 5895 5895 5895 5895 5895 5895 5895 5895 5895 5895 5896
5900 5901 5901 5900 5899 5899 5898 5897 5896 5895 5895 5894 5893 5892 5891 5891 5889 5888 5887 5886 5886 5885 5885 5885 5885 5885 5886 5886 5887 5888 5889 5890 5891 5892 5893 5893 5894 5894 5895 5895 5895 5895 5896 5896 5896 5896 5896 5896 5896
5902 5902 5902 5901 5901 5900 5899 5898 5897 5897 5896 5896 5895 5894 5892 5892 5890 5889 5888 5887 5886 5885 5885 5884 5884 5884 5885 5886 5887 5888 5889 5890 5890 5891 5892 5893 5894 5894 5894 5895 5895 5895 5896 5896 5896 5896 5896 5896 5896
5903 5903 5902 5902 5902 5901 5901 5899 5899 5898 5898 5897 5896 5895 5893 5892 5891 5889 5888 5887 5886 5885 5884 5884 5884 5884 5884 5885 5886 5887 5888 5889 5890 5891 5892 5893 5894 5894 5894 5895 5895 5896 5896 5896 5896 5896 5897 5897 5897
5903 5904 5903 5903 5903 5902 5902 5901 5900 5900 5899 5898 5897 5895 5894 5893 5891 5890 5889 5887 5886 5885 5884 5883 5883 5884 5884 5884 5885 5886 5887 5889 5890 5891 5892 5893 5893 5894 5894 5895 5895 5896 5896 5897 5897 5897 5897 5897 5897
5904 5905 5904 5904 5903 5903 5902 5902 5901 5900 5899 5899 5898 5896 5895 5893 5892 5890 5889 5887 5886 5885 5884 5883 5883 5883 5883 5884 5885 5886 5887 5888 5889 5890 5891 5892 5893 5894 5894 5895 5895 5896 5897 5897 5897 5897 5897 5898 5898
5905 5905 5905 5905 5904 5904 5903 5902 5901 5901 5900 5899 5898 5897 5895 5893 5892 5890 5889 5887 5885 5884 5883 5883 5882 5882 5882 5883 5884 5885 5886 5887 5888 5889 5890 5892 5893 5893 5894 5895 5896 5896 5897 5897 5897 5897 5898 5898 5898
5905 5905 5905 5905 5905 5904 5904 5903 5902 5901 5900 5900 5899 5897 5895 5893 5892 5890 5888 5886 5885 5884 5882 5881 5881 5881 5881 5882 5883 5883 5884 5885 5887 5888 5890 5891 5892 5893 5894 5895 5895 5896 5897 5897 5897 5898 5898 5898 5898
5905 5905 5905 5905 5905 5904 5904 5903 5902 5901 5901 5900 5899 5897 5895 5893 5891 5889 5887 5885 5884 5883 5881 5880 5880 5880 5880 5881 5881 5882 5883 5884 5885 5887 5888 5890 5891 5893 5893 5894 5895 5896 5897 5897 5898 5898 5898 5898 5899
5904 5904 5904 5904 5904 5904 5903 5903 5902 5901 5901 5899 5898 5897 5895 5892 5890 5888 5886 5884 5883 5881 5880 5879 5878 5879 5879 5879 5880 5880 5881 5882 5884 5885 5887 5889 5891 5892 5893 5894 5895 5896 5897 5897 5898 5898 5898 5899 5899
5903 5903 5904 5904 5904 5904 5903 5903 5902 5902 5901 5900 5898 5896 5894 5892 5889 5887 5885 5883 5881 5880 5878 5877 5876 5877 5877 5878 5878 5879 5879 5881 5883 5884 5886 5888 5890 5891 5892 5894 5895 5896 5896 5897 5897 5898 5898 5899 5900
5902 5903 5903 5903 5903 5903 5903 5903 5902 5901 5900 5899 5897 5896 5894 5891 5888 5886 5884 5882 5880 5878 5876 5875 5874 5875 5876 5876 5877 5877 5878 5880 5882 5883 5885 5887 5889 5890 5892 5893 5894 5895 5896 5897 5898 5898 5899 5899 5900
5901 5902 5902 5902 5902 5902 5904 5903 5902 5901 5900 5899 5897 5895 5893 5890 5888 5885 5882 5880 5878 5876 5875 5873 5873 5873 5874 5875 5875 5876 5877 5879 5881 5883 5885 5886 5888 5889 5891 5892 5893 5894 5895 5897 5898 5898 5899 5899 5900
5900 5901 5901 5901 5901 5901 5902 5902 5901 5900 5899 5898 5896 5894 5892 5890 5887 5884 5881 5878 5876 5874 5872 5871 5871 5871 5872 5873 5874 5875 5876 5878 5880 5882 5883 5885 5887 5888 5890 5891 5892 5893 5895 5896 5897 5898 5899 5899 5900
5899 5900 5900 5900 5900 5900 5900 5900 5900 5899 5898 5896 5895 5893 5891 5889 5886 5883 5881 5878 5875 5873 5871 5869 5868 5869 5870 5872 5873 5874 5875 5876 5878 5881 5882 5884 5886 5887 5889 5890 5891 5893 5894 5896 5897 5898 5898 5899 5900
5898 5899 5899 5899 5898 5899 5899 5899 5898 5898 5896 5895 5894 5892 5890 5887 5884 5882 5879 5877 5874 5871 5870 5868 5868 5870 5870 5871 5872 5873 5874 5876 5878 5880 5881 5883 5885 5886 5888 5889 5891 5892 5894 5895 5896 5897 5898 5899 5899
5896 5897 5897 5897 5896 5897 5897 5897 5897 5896 5895 5894 5893 5890 5888 5886 5883 5880 5878 5875 5873 5870 5869 5868 5868 5869 5869 5870 5871 5872 5874 5875 5877 5879 5880 5882 5884 5885 5887 5888 5890 5892 5893 5894 5895 5896 5897 5898 5899
5894 5895 5895 5895 5895 5895 5895 5896 5895 5895 5894 5893 5891 5889 5886 5884 5881 5879 5876 5874 5872 5869 5868 5867 5867 5868 5869 5870 5871 5872 5873 5875 5876 5878 5879 5881 5883 5884 5886 5887 5888 5890 5892 5893 5894 5895 5896 5897 5898
5891 5891 5892 5892 5892 5893 5894 5894 5894 5893 5892 5891 5889 5887 5885 5883 5880 5878 5875 5873 5870 5868 5867 5867 5867 5867 5868 5869 5871 5872 5873 5874 5875 5877 5878 5880 5881 5883 5884 5886 5887 5889 5890 5892 5893 5894 5895 5895 5896
5888 5888 5889 5890 5890 5891 5891 5891 5893 5891 5890 5889 5887 5886 5884 5881 5879 5877 5874 5871 5869 5868 5866 5866 5866 5867 5867 5869 5870 5871 5872 5873 5874 5875 5877 5878 5879 5881 5883 5884 5885 5887 5889 5890 5891 5892 5893 5894 5894
5885 5886 5887 5887 5888 5889 5889 5889 5890 5889 5888 5887 5886 5884 5882 5880 5878 5876 5874 5871 5869 5867 5866 5866 5866 5866 5867 5868 5869 5870 5871 5872 5873 5874 5875 5876 5878 5879 5881 5882 5883 5885 5887 5888 5889 5890 5891 5892 5892
5882 5884 5884 5885 5885 5886 5887 5887 5888 5887 5886 5885 5884 5882 5881 5879 5877 5875 5873 5871 5868 5867 5866 5866 5866 5866 5867 5867 5868 5869 5870 5871 5872 5872 5874 5875 5876 5878 5879 5880 5881 5883 5884 5886 5887 5888 5888 5889 5890
5878 5880 5882 5882 5883 5883 5884 5884 5886 5885 5884 5883 5882 5880 5879 5877 5875 5874 5872 5870 5868 5867 5866 5866 5866 5866 5867 5867 5867 5868 5869 5870 5870 5871 5872 5874 5875 5876 5877 5878 5879 5880 5882 5883 5884 5885 5885 5886 5887
5874 5876 5878 5879 5879 5880 5881 5882 5883 5882 5882 5881 5880 5879 5878 5876 5874 5872 5871 5870 5868 5867 5866 5866 5866 5866 5866 5867 5867 5868 5868 5868 5869 5870 5871 5872 5873 5874 5875 5876 5877 5878 5879 5880 5881 5882 5882 5883 5883
5870 5872 5873 5875 5876 5877 5878 5879 5881 5880 5880 5879 5878 5877 5876 5874 5873 5871 5870 5869 5868 5867 5866 5865 5865 5866 5866 5866 5867 5867 5867 5867 5867 5868 5869 5870 5870 5871 5872 5873 5874 5875 5876 5876 5877 5878 5878 5879 5879
5866 5868 5870 5871 5873 5874 5875 5879 5878 5878 5878 5877 5877 5875 5874 5873 5872 5870 5869 5868 5867 5866 5866 5865 5865 5865 5865 5865 5865 5865 5866 5866 5866 5866 5867 5867 5868 5869 5869 5870 5871 5872 5872 5873 5874 5874 5874 5874 5874
5861 5864 5866 5868 5870 5871 5872 5877 5875 5875 5875 5875 5875 5874 5873 5872 5871 5869 5868 5867 5866 5866 5865 5865 5864 5864 5864 5864 5863 5863 5864 5864 5864 5864 5865 5865 5865 5866 5867 5867 5868 5868 5869 5869 5870 5870 5870 5870 5869